Tiree, United Kingdom

9:06 AM BST on July 28, 2017 (GMT +0100)
Tiree

Weather History for EGPU - August, 2013

Change the Weather History Date:

Tuesday, August 27, 2013

  Actual Average Record
Temperature  
Mean Temperature 56 °F -  
Max Temperature 60 °F 58 °F 64 °F (2012)
Min Temperature 53 °F 50 °F 46 °F (2011)
Degree Days  
Heating Degree Days 8    
Growing Degree Days 6 (Base 50)    
Moisture  
Dew Point 52 °F    
Average Humidity 84    
Maximum Humidity 100    
Minimum Humidity 59    
Precipitation  
Precipitation 0.01 in 0.17 in - ()
Sea Level Pressure  
Sea Level Pressure 30.14 in    
Wind  
Wind Speed 10 mph ()    
Max Wind Speed 18 mph    
Max Gust Speed -    
Visibility 6.7 miles    
Events Rain    
Averages and records for this station are not official NWS values.
T = Trace of Precipitation, MM = Missing Value Source: Averaged Metar Reports

Daily Weather History Graph

Daily Weather History Graph

Search for Another Location

Airport or City:

Trip Planner

Search our weather history database for the weather conditions in past years. The results will help you decide how hot, cold, wet, or windy it might be!

Date:

Astronomy

Aug. 27, 2013 Rise Set
Actual Time 6:20 AM BST 8:35 PM BST
Civil Twilight 5:39 AM BST 9:16 PM BST
Nautical Twilight 4:47 AM BST 10:08 PM BST
Astronomical Twilight 3:42 AM BST 11:12 PM BST
Moon 10:53 PM BST (8/27) 2:30 PM BST (8/27)
Length of Visible Light 15h 36m
Length of Day
14h 14m
Waning Gibbous, 59% of the Moon is Illuminated
Aug 27
Waning Gibbous
Aug 28
Last Quarter
Sep 5
New
Sep 12
First Quarter
Sep 19
Full

Hourly Weather History & Observations

Time (BST) Temp. Dew Point Humidity Pressure Visibility Wind Dir Wind Speed Gust Speed Precip Events Conditions
12:20 AM 57.2 °F 57.2 °F 100% 30.09 in 3.7 mi SSW 10.4 mph - N/A   Overcast
12:50 AM 58 °F 57 °F 96% 30.09 in 6 mi SSW 8.1 mph - -   Mostly Cloudy
12:50 AM 57.2 °F 57.2 °F 100% 30.09 in 6.2 mi Variable 8.1 mph - N/A   Mostly Cloudy
1:20 AM 57.2 °F 57.2 °F 100% 30.06 in 6.2 mi SSW 6.9 mph - N/A   Mostly Cloudy
1:50 AM 57.2 °F 57.2 °F 100% 30.06 in 6.2 mi South 9.2 mph - N/A   Partly Cloudy
2:20 AM 57.2 °F 57.2 °F 100% 30.06 in 6.2 mi SSW 8.1 mph - N/A   Mostly Cloudy
2:50 AM 57.2 °F 57.2 °F 100% 30.06 in 6.2 mi South 8.1 mph - N/A   Mostly Cloudy
3:20 AM 57.2 °F 57.2 °F 100% 30.04 in 6.2 mi South 9.2 mph - N/A Rain Light Rain
3:50 AM 59.0 °F 57.2 °F 94% 30.06 in 6.2 mi South 6.9 mph - N/A   Scattered Clouds
4:20 AM 59.0 °F 57.2 °F 94% 30.04 in 5.0 mi South 9.2 mph - N/A Rain Light Rain Showers
4:50 AM 59.0 °F 57.2 °F 94% 30.06 in 1.6 mi Variable 8.1 mph - N/A   Mostly Cloudy
5:20 AM 59.0 °F 57.2 °F 94% 30.06 in 1.5 mi SSW 9.2 mph - N/A   Scattered Clouds
5:50 AM 59.0 °F 57.2 °F 94% 30.06 in 1.7 mi SW 8.1 mph - N/A   Overcast
6:20 AM 59.0 °F 57.2 °F 94% 30.06 in 1.6 mi SW 8.1 mph - N/A   Overcast
6:50 AM 58 °F 58 °F 100% 30.07 in 3 mi WSW 9.2 mph - - Rain Rain
6:50 AM 59.0 °F 57.2 °F 94% 30.06 in - WSW 9.2 mph - N/A   Overcast
7:20 AM 59.0 °F 57.2 °F 94% 30.06 in 1.7 mi WNW 8.1 mph - N/A   Mostly Cloudy
7:50 AM 57.2 °F 57.2 °F 100% 30.06 in 1.7 mi NW 10.4 mph - N/A   Mostly Cloudy
8:20 AM 55.4 °F 55.4 °F 100% 30.09 in 6.2 mi North 17.3 mph - N/A   Mostly Cloudy
8:50 AM 55.4 °F 55.4 °F 100% 30.09 in 6.2 mi North 17.3 mph - N/A   Overcast
9:20 AM 55.4 °F 55.4 °F 100% 30.09 in 6.2 mi North 16.1 mph - N/A   Mostly Cloudy
9:50 AM 56 °F 54 °F 91% 30.13 in 9 mi NNW 17.3 mph - -   Mostly Cloudy
9:50 AM 55.4 °F 53.6 °F 94% 30.12 in 5.6 mi NNW 17.3 mph - N/A   Mostly Cloudy
10:20 AM 55.4 °F 53.6 °F 94% 30.12 in 6.2 mi NNW 16.1 mph - N/A   Mostly Cloudy
10:50 AM 57.2 °F 53.6 °F 88% 30.12 in 6.2 mi NNW 13.8 mph - N/A   Overcast
11:20 AM 57.2 °F 53.6 °F 88% 30.12 in 6.2 mi NNW 12.7 mph - N/A   Mostly Cloudy
11:50 AM 57.2 °F 51.8 °F 82% 30.12 in 6.2 mi NNW 15.0 mph - N/A   Mostly Cloudy
12:20 PM 59.0 °F 51.8 °F 77% 30.12 in 6.2 mi NNW 13.8 mph - N/A   Mostly Cloudy
12:50 PM 58 °F 53 °F 79% 30.17 in 14 mi NNW 15.0 mph - -   Scattered Clouds
12:50 PM 59.0 °F 53.6 °F 82% 30.15 in 6.2 mi NNW 15.0 mph - N/A   Mostly Cloudy
1:20 PM 55.4 °F 53.6 °F 94% 30.15 in 6.2 mi NNW 17.3 mph - N/A   Mostly Cloudy
1:50 PM 57.2 °F 51.8 °F 82% 30.15 in 6.2 mi NNW 18.4 mph - N/A   Mostly Cloudy
2:20 PM 59.0 °F 53.6 °F 82% 30.18 in 6.2 mi NNW 17.3 mph - N/A   Mostly Cloudy
2:50 PM 59.0 °F 51.8 °F 77% 30.18 in 6.2 mi NNW 16.1 mph - N/A   Mostly Cloudy
3:20 PM 57.2 °F 50.0 °F 77% 30.18 in 6.2 mi NNW 13.8 mph - N/A   Mostly Cloudy
3:50 PM 60 °F 51 °F 63% 30.20 in 17 mi NNW 12.7 mph - -   Mostly Cloudy
3:50 PM 60.8 °F 50.0 °F 68% 30.18 in 6.2 mi NNW 12.7 mph - N/A   Mostly Cloudy
4:20 PM 59.0 °F 50.0 °F 72% 30.18 in 6.2 mi NNW 15.0 mph - N/A   Mostly Cloudy
4:50 PM 58 °F 49 °F 65% 30.21 in 14 mi NNW 15.0 mph - -   Mostly Cloudy
4:50 PM 57.2 °F 50.0 °F 77% 30.18 in 6.2 mi NNW 15.0 mph - N/A   Mostly Cloudy
5:20 PM 57.2 °F 48.2 °F 72% 30.18 in 6.2 mi NNW 13.8 mph - N/A   Overcast
5:50 PM 57.2 °F 44.6 °F 63% 30.21 in 6.2 mi NNW 11.5 mph - N/A   Mostly Cloudy
6:20 PM 57.2 °F 50.0 °F 77% 30.21 in 6.2 mi NNW 11.5 mph - N/A   Overcast
6:50 PM 56 °F 49 °F 70% 30.22 in 14 mi NNW 11.5 mph - -   Overcast
6:50 PM 57.2 °F 48.2 °F 72% 30.21 in 6.2 mi NNW 11.5 mph - N/A   Overcast
7:20 PM 55.4 °F 50.0 °F 82% 30.21 in 6.2 mi NNW 10.4 mph - N/A   Overcast
7:50 PM 55 °F 48 °F 69% 30.23 in 14 mi NNW 10.4 mph - -   Mostly Cloudy
7:50 PM 55.4 °F 48.2 °F 77% 30.21 in 6.2 mi NNW 10.4 mph - N/A   Mostly Cloudy
8:20 PM 55.4 °F 46.4 °F 72% 30.21 in 6.2 mi NNW 9.2 mph - N/A   Overcast
8:50 PM 53.6 °F 46.4 °F 77% 30.21 in 6.2 mi NW 6.9 mph - N/A   Overcast
9:20 PM 53.6 °F 44.6 °F 72% 30.24 in 6.2 mi North 5.8 mph - N/A   Mostly Cloudy
9:50 PM 55 °F 45 °F 59% 30.25 in 16 mi NNW 9.2 mph - -   Mostly Cloudy
9:50 PM 55.4 °F 44.6 °F 67% 30.24 in 6.2 mi NNW 9.2 mph - N/A   Mostly Cloudy
10:20 PM 53.6 °F 44.6 °F 72% 30.24 in 6.2 mi NNW 6.9 mph - N/A   Overcast
10:50 PM 54 °F 45 °F 62% 30.25 in 16 mi NNW 6.9 mph - -   Overcast
10:50 PM 53.6 °F 44.6 °F 72% 30.24 in 6.2 mi NNW 6.9 mph - N/A   Overcast
11:20 PM 53.6 °F 44.6 °F 72% 30.24 in 6.2 mi NNW 5.8 mph - N/A   Overcast
11:50 PM 53.6 °F 46.4 °F 77% 30.24 in 6.2 mi North 6.9 mph - N/A   Overcast